STARLINK-3119, 49145

Orbit data source: Space-Track

STARLINK-3119, 49145 is a payload satellite owned by SpaceX/Seattle (US) in LEO that was launched on Tue, 14 Sep 2021 UTC via an FALCON 9 launch vehicle from the Air Force Western Test Range (AFWTR). Payload-class satellites include a variety of spacecraft equipped with specific instruments for various scientific and technological missions. These include communications satellites like Starlink; space stations such as the ISS; scientific satellites like the Hubble; Earth observation satellites from companies like Planet Labs, Umbra, and HawkEye 360; GPS; miniature CubeSats for education and research; and military/defense satellites.

Loading next visibility...
Identifier
49145, 2021-082R
Orbit
LEO
Country
Flag of USUS
Related business
Manufacturer
SpaceX/Seattle
Mission
Operational Commercial Communications
Bus & Motor
STARLINK, Unknown motor
Mass
297 kg wet, ~275 kg dry
Launch date (UTC)
2021-09-14 (4 years ago)
Launch vehicle
FALCON 9
Launch site
Air Force Western Test Range (AFWTR)
Object type
Payload
Rocket body
Debris
Shape & HBR
Box + 1 Pan, 10.1 m
Radar Cross Section
13.562 m², Large (>1 m²)

Expand to show TLE details & history
Last TLE update: 16 hours ago

TLE from 16 hours ago
0 STARLINK-3119
1 49145U 21082R   25311.07959800  .00000826  00000-0  76999-4 0  9996
2 49145  69.9996 203.5835 0002866 266.8666  93.2165 14.98333423228593
Epoch: 2025-11-07T01:54Z
TLE epoch observation values (Epoch: 2025-11-07T01:54:37.267Z)
Latitude
-0.00002°
Longitude
128.3995°
Altitude
574.581 km
Speed
7.574 km/s
True Right ascension
13h 34m 20s
True Declination
0° 00' 00"
Sunlit
Object was in daylight at epoch
Visualization orbit readout
Latitude
Unknown
Longitude
Unknown
Altitude
Unknown
Speed
Unknown
Apparent Right ascension
Unknown
Apparent Declination
Unknown
Sunlit
N/A
Visualization observer readout
Local Sidereal Time
13:38:04
Azimuth
Unknown
Elevation
Unknown
Doppler factor
Unknown
Orbital elements
Apogee altitude
571.985 km
Perigee altitude
568.002 km
Semi-major axis
6,948.131 km
Eccentricity
0.00029
Inclination
69.9996°
RAAN
203.5835°
Arg. of periapsis
266.8666°
True anomaly
93.24929°
Mean anomaly
93.2165°
Eccentric anomaly
93.23289°
Mean motion
3.7475 °/min
Orbital period
96.06 mins
BSTAR
0.000076999
Loading maneuver chart data...
Computing Atmospheric mass density...
Loading historical data...
Loading historical data...
Loading historical data...
Loading historical data...
Loading historical data...
Loading historical data...
Loading historical data...

Documentation

Showing up to 5 results
|